Satellite: SO-50
Catalog number: 27607
Epoch time:      12144.71845408
Element set:    0769
Inclination:      064.5590 deg
RA of node:       009.3332 deg
Eccentricity:    0.0083709
Arg of perigee:   253.4513 deg
Mean anomaly:     105.7346 deg
Mean motion:   14.72365907 rev/day
Decay rate:       4.02e-06 rev/day^2
Epoch rev:           50636
Checksum:              303

Satellite: CO-55
Catalog number: 27844
Epoch time:      12144.55932337
Element set:    0380
Inclination:      098.7024 deg
RA of node:       153.2957 deg
Eccentricity:    0.0009142
Arg of perigee:   298.4486 deg
Mean anomaly:     061.5791 deg
Mean motion:   14.21017019 rev/day
Decay rate:       2.71e-06 rev/day^2
Epoch rev:           46139
Checksum:              312

Satellite: CO-57
Catalog number: 27848
Epoch time:      12144.55866976
Element set:     330
Inclination:      098.7096 deg
RA of node:       152.6171 deg
Eccentricity:    0.0009135
Arg of perigee:   305.2981 deg
Mean anomaly:     054.7357 deg
Mean motion:   14.20769215 rev/day
Decay rate:       2.26e-06 rev/day^2
Epoch rev:           46133
Checksum:              324

Satellite: AO-51
Catalog number: 28375
Epoch time:      12144.77656846
Element set:     272
Inclination:      098.1455 deg
RA of node:       111.1919 deg
Eccentricity:    0.0084274
Arg of perigee:   114.3087 deg
Mean anomaly:     246.6931 deg
Mean motion:   14.40941251 rev/day
Decay rate:       1.52e-06 rev/day^2
Epoch rev:           41525
Checksum:              304

Satellite: CP3
Catalog number: 31129
Epoch time:      12145.60090934
Element set:     172
Inclination:      097.8769 deg
RA of node:       154.7627 deg
Eccentricity:    0.0100866
Arg of perigee:   195.8413 deg
Mean anomaly:     163.9624 deg
Mean motion:   14.53047488 rev/day
Decay rate:       5.36e-06 rev/day^2
Epoch rev:           27055
Checksum:              320

Satellite: CO-65
Catalog number: 32785
Epoch time:      12144.81905435
Element set:    0319
Inclination:      097.8004 deg
RA of node:       206.4446 deg
Eccentricity:    0.0015304
Arg of perigee:   138.0642 deg
Mean anomaly:     222.1728 deg
Mean motion:   14.82936570 rev/day
Decay rate:      1.792e-05 rev/day^2
Epoch rev:           22015
Checksum:              294

Satellite: PRISM
Catalog number: 33493
Epoch time:      12145.72629964
Element set:     723
Inclination:      098.1676 deg
RA of node:       285.7365 deg
Eccentricity:    0.0019128
Arg of perigee:   017.4114 deg
Mean anomaly:     342.7757 deg
Mean motion:   14.83791062 rev/day
Decay rate:      2.990e-05 rev/day^2
Epoch rev:           18027
Checksum:              326

Satellite: SOHLA-1
Catalog number: 33496
Epoch time:      12144.87185370
Element set:    0747
Inclination:      098.1025 deg
RA of node:       256.7717 deg
Eccentricity:    0.0007536
Arg of perigee:   114.6717 deg
Mean anomaly:     245.5272 deg
Mean motion:   14.69956737 rev/day
Decay rate:       4.22e-06 rev/day^2
Epoch rev:           17867
Checksum:              334

Satellite: SO-67
Catalog number: 35870
Epoch time:      12145.87305713
Element set:     984
Inclination:      097.2336 deg
RA of node:       182.4396 deg
Eccentricity:    0.0000485
Arg of perigee:   203.0007 deg
Mean anomaly:     278.4975 deg
Mean motion:   15.23643833 rev/day
Decay rate:      4.794e-05 rev/day^2
Epoch rev:           14906
Checksum:              329

Satellite: TISAT-1
Catalog number: 36799
Epoch time:      12145.77600591
Element set:       2
Inclination:      098.0629 deg
RA of node:       221.9389 deg
Eccentricity:    0.0013566
Arg of perigee:   246.5747 deg
Mean anomaly:     113.4045 deg
Mean motion:   14.81881795 rev/day
Decay rate:      1.998e-05 rev/day^2
Epoch rev:           10102
Checksum:              319

Satellite: STUDSAT
Catalog number: 36801
Epoch time:      12144.80164906
Element set:     400
Inclination:      098.0699 deg
RA of node:       221.5647 deg
Eccentricity:    0.0011795
Arg of perigee:   235.4740 deg
Mean anomaly:     124.5361 deg
Mean motion:   14.84082812 rev/day
Decay rate:      5.352e-05 rev/day^2
Epoch rev:           10090
Checksum:              277

Satellite: FO-69
Catalog number: 37227
Epoch time:      12144.25127398
Element set:    0189
Inclination:      071.9720 deg
RA of node:       006.9858 deg
Eccentricity:    0.0015333
Arg of perigee:   001.4312 deg
Mean anomaly:     358.6880 deg
Mean motion:   14.77054072 rev/day
Decay rate:       1.50e-06 rev/day^2
Epoch rev:           03241
Checksum:              292

Satellite: FO-70
Catalog number: 37380
Epoch time:      12144.25263987
Element set:    0191
Inclination:      071.9717 deg
RA of node:       007.5118 deg
Eccentricity:    0.0018776
Arg of perigee:   358.4415 deg
Mean anomaly:     001.6742 deg
Mean motion:   14.76813663 rev/day
Decay rate:      1.465e-05 rev/day^2
Epoch rev:           03230
Checksum:              304

Satellite: ALMASAT-1
Catalog number: 38078
Epoch time:      12145.75921682
Element set:     238
Inclination:      069.4968 deg
RA of node:       010.3071 deg
Eccentricity:    0.0762356
Arg of perigee:   277.9028 deg
Mean anomaly:     073.6348 deg
Mean motion:   14.08641625 rev/day
Decay rate:     1.3599e-04 rev/day^2
Epoch rev:            1425
Checksum:              326

